THOR ABLESTAR DEB, 467

Orbit data source: Space-Track

THOR ABLESTAR DEB, 467 is space debris in LEO originally from a launch on Thu, 29 Jun 1961 UTC launched from the Air Force Eastern Test Range (AFETR). Debris objects in space refer to the collection of defunct objects orbiting the Earth. Examples of debris include non-operational satellites, rocket bodies, and fragments generated from explosions, collisions, or faulty payload assembly.

Loading next visibility...
Identifier
467, 1961-015FD
Orbit
LEO
Country
Flag of USUS
Related business
Manufacturer
Unknown
Mission
Spacecraft
Bus & Motor
Unknown
Mass
Unknown
Launch date (UTC)
1961-06-29 (64 years ago)
Launch vehicle
Unknown
Launch site
Air Force Eastern Test Range (AFETR)
Object type
Payload
Rocket body
Debris
Shape & HBR
Unknown shape, 0.1 m
Radar Cross Section
Small (<0.1 m²)

Expand to show TLE details & history
Last TLE update: 12 hours ago

TLE from 12 hours ago
0 THOR ABLESTAR DEB
1 00467U 61015FD  25296.33671227  .00001846  00000-0  22757-2 0  9999
2 00467  66.5578 279.9825 0233871 107.4986 255.1778 13.56512676248806
Epoch: 2025-10-23T08:04Z
TLE epoch observation values (Epoch: 2025-10-23T08:04:51.940Z)
Latitude
-0.00003°
Longitude
126.76865°
Altitude
1,098.618 km
Speed
7.28 km/s
True Right ascension
18h 39m 55s
True Declination
0° 00' 00"
Sunlit
Object was in daylight at epoch
Visualization orbit readout
Latitude
Unknown
Longitude
Unknown
Altitude
Unknown
Speed
Unknown
Apparent Right ascension
Unknown
Apparent Declination
Unknown
Sunlit
N/A
Visualization observer readout
Local Sidereal Time
15:03:24
Azimuth
Unknown
Elevation
Unknown
Doppler factor
Unknown
Orbital elements
Apogee altitude
1,220.488 km
Perigee altitude
873.19 km
Semi-major axis
7,424.976 km
Eccentricity
0.02339
Inclination
66.5578°
RAAN
279.9825°
Arg. of periapsis
107.4986°
True anomaly
252.60711°
Mean anomaly
255.1778°
Eccentric anomaly
253.89044°
Mean motion
3.39235 °/min
Orbital period
106.12 mins
BSTAR
0.0022757

Documentation

Showing up to 5 results
|